Temp
8 8 8 8 8 8 8 8 8 8 8 8 8 8 8 8 8 8 9 9 9 9 9 9 9 9 8 8 8 8 9 9 9 9 9 9 9 9 9 9 9 9 9 10 10 10 10 10 11 11 11 11 11 11 11 11 11 11 11 11 11 11 11 11 11 11 11 11 11
8 8 8 8 8 8 8 8 8 8 8 8 8 8 8 8 8 8 9 9 9 9 9 9 9 9 9 8 8 9 9 9 9 9 9 9 9 9 9 10 10 10 10 10 10 10 10 10 11 11 11 11 11 11 11 10 10 10 10 11 11 11 11 11 11 11 11 11 11
8 8 8 8 9 8 8 8 8 8 8 8 8 8 8 9 9 9 9 9 9 9 9 9 9 9 9 9 9 9 9 9 9 9 9 9 9 10 10 10 11 11 10 10 10 10 10 10 10 11 11 11 11 11 10 10 10 10 10 10 11 11 11 11 11 11 11 11 11
8 8 8 8 8 8 8 8 8 8 8 8 8 8 8 8 9 9 9 9 9 9 9 9 9 9 9 9 9 9 9 9 9 9 10 10 10 10 11 11 11 11 11 11 10 10 10 10 10 10 11 11 11 10 10 10 10 10 10 10 10 10 11 11 11 11 11 11 11
8 8 8 8 8 8 8 8 8 9 9 9 9 8 8 8 8 9 9 9 9 9 9 9 9 9 9 10 10 9 9 9 9 10 10 10 11 11 11 11 11 11 11 11 11 10 10 10 10 10 10 10 10 10 10 10 10 10 10 10 10 10 10 11 11 11 11 11 11
8 8 8 8 8 8 8 8 8 9 9 9 9 9 9 8 9 9 9 9 9 9 9 9 9 9 10 10 10 10 10 10 10 10 10 10 11 11 11 11 11 11 11 11 11 10 10 10 10 10 10 10 10 10 10 10 10 10 10 10 10 10 10 10 11 11 11 11 11
9 8 8 8 8 8 8 8 8 9 9 9 9 9 9 9 9 9 9 9 9 9 9 9 9 9 9 10 10 10 10 10 10 10 10 10 10 10 10 10 11 11 11 11 11 10 10 10 10 10 10 10 10 10 10 10 10 10 10 10 10 10 10 10 10 11 11 11 11
9 9 9 9 8 8 8 8 8 8 9 9 9 9 9 9 9 9 9 9 9 9 9 9 9 9 9 9 10 10 10 10 10 10 11 11 11 11 10 10 10 10 10 10 10 10 10 10 10 10 10 10 10 10 10 10 10 10 10 10 10 10 10 10 10 11 11 11 11
9 9 9 9 9 9 8 8 8 8 8 8 9 9 9 9 9 9 9 9 9 9 9 9 9 9 9 9 9 9 10 10 10 10 11 11 11 11 11 10 10 10 10 10 10 10 10 10 10 10 10 10 10 10 10 10 10 10 10 10 10 10 10 10 10 11 11 10 10
9 9 9 9 9 9 9 9 8 8 8 8 9 9 9 9 9 9 9 9 9 9 9 9 9 9 9 9 9 9 9 10 10 10 10 11 11 11 11 11 11 10 10 10 10 10 10 10 10 10 10 9 10 10 10 10 10 10 10 10 10 10 10 10 10 10 10 10 10
9 9 9 9 9 9 9 9 9 9 9 9 9 9 9 9 9 9 9 9 9 9 9 9 9 9 9 9 9 9 9 9 9 10 10 10 10 11 11 11 11 11 11 11 10 10 10 10 10 10 10 9 9 10 10 10 10 10 10 10 10 10 10 10 10 10 10 10 10
9 9 9 9 9 9 9 9 9 9 9 9 9 9 9 8 8 9 9 9 9 9 9 9 9 9 9 8 8 8 9 9 9 9 9 10 10 10 11 11 11 11 11 11 11 11 10 10 10 10 10 9 10 10 10 10 10 10 10 10 10 10 10 10 10 10 10 10 10
9 9 9 9 10 10 10 10 9 9 9 9 9 9 8 8 8 9 9 9 9 8 8 8 9 9 9 8 8 8 8 8 8 9 9 9 9 10 10 10 10 10 10 11 11 11 10 10 10 10 10 10 10 10 10 10 10 10 10 10 10 10 10 10 10 10 10 10 10
9 9 9 9 9 10 10 10 10 9 9 9 9 9 9 9 9 9 9 9 9 8 8 8 8 8 9 9 9 8 8 8 8 8 8 9 9 9 9 9 9 9 10 10 10 10 10 10 10 10 9 9 10 10 10 10 10 10 10 10 10 10 10 10 10 10 10 10 10
8 9 9 9 9 9 10 10 10 10 9 9 9 9 9 9 9 9 9 9 9 9 8 8 8 8 8 9 9 9 8 8 8 8 8 8 8 8 9 9 9 9 9 9 9 9 9 9 9 9 9 9 10 10 10 10 10 10 10 10 10 10 10 10 10 10 10 10 10
8 8 9 9 9 9 9 9 9 9 9 9 9 9 9 9 9 9 9 9 9 9 9 8 8 8 8 9 9 9 9 8 8 8 8 8 8 8 8 8 8 9 9 9 9 9 9 9 9 9 9 9 9 10 10 10 10 10 10 10 10 10 10 10 10 10 10 10 10
8 8 8 8 9 9 9 9 9 9 9 9 9 9 9 9 9 9 9 9 9 9 9 9 8 8 8 8 9 9 9 8 8 8 8 8 8 8 8 8 8 8 8 8 8 9 9 9 9 9 9 9 9 9 9 10 10 10 10 10 10 10 10 10 10 10 10 10 10
8 8 8 8 8 8 8 9 9 9 9 9 9 9 9 9 9 9 9 9 9 9 9 9 9 9 9 9 9 9 8 8 8 8 8 8 8 8 7 7 7 8 8 8 8 8 8 8 8 8 9 9 9 9 9 9 9 9 9 9 9 9 9 10 10 10 10 10 10
7 7 7 8 8 8 8 8 8 9 9 9 9 9 9 9 9 9 9 9 9 9 9 9 9 9 9 9 9 9 8 8 8 8 8 8 8 8 7 7 7 7 7 7 8 8 8 8 8 8 8 8 8 8 9 9 9 9 9 9 9 9 9 9 9 9 9 10 10
7 7 7 7 7 8 8 8 8 8 8 9 9 9 9 9 9 9 9 9 9 9 9 9 9 9 9 9 9 8 8 8 8 8 8 8 8 8 7 7 7 7 7 7 7 7 7 7 8 8 8 8 8 8 8 8 8 8 8 8 9 9 9 9 9 9 9 9 9
7 7 7 7 7 7 7 8 8 8 8 8 9 9 9 9 9 9 9 9 9 9 9 9 9 9 9 8 8 8 8 8 8 8 8 8 8 8 7 7 7 7 7 7 7 7 7 7 7 7 7 8 8 8 8 8 8 8 8 8 8 8 8 8 8 9 9 9 9
7 7 7 7 7 7 7 7 8 8 8 8 8 9 9 9 9 9 8 8 8 9 9 9 9 9 8 8 8 8 8 8 8 8 8 8 8 8 8 7 7 7 7 7 7 7 7 7 7 7 7 7 7 8 8 8 8 8 8 8 8 8 8 8 8 8 8 8 8
7 7 7 7 7 7 7 7 7 8 8 8 8 8 9 9 9 9 9 9 9 8 8 8 8 8 8 8 8 8 8 8 8 8 8 8 8 8 8 8 8 8 7 7 7 7 7 7 7 7 7 7 7 8 8 8 8 8 8 8 8 8 8 8 8 8 8 8 8
7 7 7 7 7 7 7 7 7 7 7 8 8 8 8 9 9 9 9 9 9 9 8 8 8 8 8 8 8 8 8 8 8 8 8 8 8 8 8 8 8 8 8 8 8 8 7 7 7 7 7 7 7 8 8 8 8 8 8 8 8 8 8 8 8 8 8 8 8
7 7 7 7 7 7 7 7 7 7 7 7 8 8 8 8 8 9 9 9 9 9 9 8 8 8 8 8 8 8 8 8 7 7 7 7 7 8 8 8 8 8 8 8 8 8 8 8 8 8 8 8 8 8 8 8 8 8 7 7 7 7 7 7 7 7 7 8 8
7 7 7 7 7 7 7 7 7 7 7 7 7 8 8 8 8 8 9 9 9 9 9 9 9 9 8 8 8 8 8 8 7 7 7 7 7 7 7 7 8 8 8 8 8 8 8 8 8 8 8 8 8 8 7 7 7 7 7 7 7 7 7 7 7 7 7 7 7
6 7 7 7 7 7 7 7 7 7 7 7 7 7 8 8 8 8 8 9 9 9 9 9 9 9 9 8 8 8 8 7 7 7 7 7 7 7 7 7 7 7 7 7 7 8 8 8 8 8 8 8 7 7 7 7 7 7 7 7 7 7 7 7 7 7 7 8 8
6 6 7 7 7 7 7 7 7 7 7 7 7 7 7 7 8 8 8 8 8 9 9 9 9 9 9 9 8 8 8 8 7 7 7 7 7 7 7 7 7 7 7 7 7 7 7 8 8 8 8 8 8 7 7 7 7 7 7 7 7 7 7 7 7 7 8 8 8
6 6 6 7 7 7 7 7 7 7 7 7 7 7 7 7 7 8 8 8 8 8 8 8 9 9 9 9 8 8 8 8 7 7 7 7 7 7 6 6 7 7 7 7 7 7 7 7 7 8 8 8 7 7 7 7 7 7 7 7 7 7 7 7 7 7 7 7 8
6 6 6 6 6 7 7 7 7 7 7 7 7 7 7 7 7 7 7 8 8 8 8 8 8 8 8 8 8 8 8 8 8 7 7 7 7 7 7 6 6 6 7 7 7 7 7 7 7 7 7 7 7 7 7 7 7 7 7 7 7 7 7 7 7 7 7 7 7
6 6 6 6 6 6 7 7 7 7 7 7 7 7 7 7 7 7 7 7 7 7 7 7 8 8 8 8 8 8 8 8 8 7 7 7 7 7 7 7 6 6 6 6 6 7 7 7 7 7 7 7 7 7 7 7 7 7 7 7 7 7 7 7 7 7 7 7 7
6 6 6 6 6 6 6 6 7 7 7 7 7 7 7 7 7 7 7 7 7 7 7 7 7 8 8 8 8 8 8 8 8 8 7 7 7 7 7 6 6 6 6 6 6 6 6 7 7 7 7 7 7 7 7 7 7 7 7 7 7 7 7 7 7 7 7 7 7
6 6 6 6 6 6 6 6 6 7 7 7 7 7 7 7 7 7 7 7 7 7 7 7 7 7 7 7 8 8 8 8 8 8 7 7 7 7 7 6 6 6 6 6 6 6 6 6 7 7 7 7 7 7 7 7 7 7 7 7 7 7 7 7 7 7 7 6 6
6 6 6 6 6 6 6 6 6 7 7 7 7 7 7 7 7 7 7 7 7 7 7 6 6 6 7 7 7 7 7 7 8 8 7 7 7 7 7 6 6 6 6 6 6 6 6 6 6 6 6 7 7 7 7 7 7 7 7 7 7 7 7 7 7 7 7 6 6
6 6 6 6 6 6 6 6 6 6 7 7 7 7 7 7 7 7 7 7 7 7 7 6 6 6 6 6 6 7 7 7 7 7 7 7 7 7 7 6 6 6 6 6 6 6 6 6 6 6 6 6 6 6 7 7 7 7 7 7 7 7 7 7 7 7 7 7 6
6 6 6 6 6 6 6 6 6 6 6 7 7 7 7 7 7 7 7 7 7 7 7 7 6 6 6 6 6 6 6 7 7 7 7 7 7 7 7 6 6 6 6 6 6 6 5 5 5 5 6 6 6 6 6 6 7 7 7 7 7 7 7 7 7 7 7 7 7
5 5 5 5 5 5 6 6 6 6 6 6 7 7 7 7 7 7 7 7 7 7 7 7 7 6 6 6 6 6 6 6 6 6 7 7 7 7 7 6 6 6 6 6 6 6 6 5 5 5 5 5 5 5 5 6 6 7 7 7 7 7 7 7 7 7 7 7 7
5 5 5 5 5 5 5 6 6 6 6 6 6 6 6 6 6 6 6 6 6 7 7 7 7 6 6 6 6 6 6 6 6 6 6 6 6 6 6 6 6 6 6 6 6 6 6 5 5 4 4 4 4 5 5 5 6 6 6 7 7 7 7 7 7 7 7 7 7
5 5 5 5 5 5 5 5 6 6 6 6 6 6 6 6 6 6 6 6 6 6 6 6 6 6 6 6 6 5 5 5 5 5 5 6 6 6 6 6 6 6 6 6 6 6 5 5 5 4 4 4 4 4 5 5 5 6 6 6 7 7 7 7 7 7 7 7 7
5 4 4 5 5 5 5 5 5 6 6 6 6 6 6 6 6 6 6 6 6 6 6 6 6 6 6 6 6 6 5 5 5 5 5 5 5 5 5 5 5 5 5 5 5 5 5 5 5 4 4 4 4 4 5 5 5 5 6 6 6 7 7 7 7 7 7 7 7
4 4 4 4 4 5 5 5 5 5 5 6 6 6 6 6 6 6 6 6 6 6 6 6 6 6 6 6 6 6 6 5 5 5 4 4 5 5 5 5 5 5 5 5 5 5 5 5 5 5 5 4 4 4 5 5 5 5 5 6 6 6 7 7 7 7 7 7 7
Height
1384 1382 1380 1377 1375 1373 1371 1370 1368 1366 1365 1363 1361 1360 1359 1358 1357 1355 1355 1354 1353 1353 1352 1351 1350 1350 1350 1349 1349 1349 1349 1350 1350 1351 1352 1352 1352 1352 1351 1350 1350 1350 1350 1350 1351 1352 1353 1354 1355 1356 1358 1359 1360 1361 1363 1364 1365 1366 1367 1367 1368 1369 1370 1371 1372 1373 1375 1376 1378
1385 1383 1381 1379 1377 1375 1372 1370 1369 1367 1365 1364 1362 1361 1359 1358 1357 1357 1356 1355 1354 1354 1353 1352 1351 1351 1350 1350 1350 1350 1349 1350 1350 1351 1352 1353 1352 1351 1350 1350 1349 1349 1350 1351 1352 1353 1354 1355 1356 1357 1358 1360 1361 1362 1363 1364 1365 1366 1367 1368 1368 1369 1370 1371 1372 1373 1374 1376 1377
1385 1384 1382 1380 1378 1375 1373 1371 1370 1368 1366 1365 1363 1362 1360 1359 1358 1357 1356 1356 1355 1354 1354 1353 1352 1352 1351 1351 1351 1351 1351 1351 1351 1352 1352 1353 1353 1352 1351 1351 1350 1350 1351 1351 1352 1354 1355 1355 1356 1357 1359 1360 1361 1362 1363 1364 1365 1366 1367 1368 1369 1369 1370 1370 1371 1372 1374 1375 1376
1386 1384 1382 1380 1379 1377 1375 1373 1371 1369 1368 1366 1365 1363 1361 1360 1359 1358 1357 1356 1355 1355 1354 1354 1353 1353 1352 1352 1351 1352 1352 1352 1352 1352 1353 1353 1353 1353 1353 1352 1353 1352 1352 1352 1353 1354 1355 1356 1357 1358 1359 1360 1361 1362 1363 1364 1365 1367 1368 1369 1370 1370 1370 1370 1371 1372 1373 1374 1376
1387 1385 1384 1382 1380 1378 1376 1375 1373 1371 1369 1368 1366 1364 1362 1360 1359 1358 1357 1356 1356 1355 1355 1355 1354 1354 1353 1353 1353 1353 1353 1353 1353 1353 1353 1353 1353 1353 1353 1354 1354 1354 1354 1354 1354 1355 1356 1357 1358 1359 1360 1361 1361 1362 1363 1365 1366 1367 1369 1370 1370 1370 1371 1371 1371 1372 1373 1374 1375
1388 1386 1385 1383 1381 1380 1378 1376 1374 1373 1371 1369 1367 1365 1364 1362 1360 1359 1358 1357 1357 1356 1355 1355 1355 1354 1354 1354 1354 1354 1353 1353 1353 1354 1354 1354 1354 1354 1354 1354 1355 1355 1356 1356 1356 1356 1357 1358 1359 1360 1361 1361 1362 1363 1364 1365 1366 1368 1369 1370 1370 1371 1371 1371 1372 1372 1373 1374 1375
1389 1387 1386 1384 1382 1380 1379 1377 1375 1374 1372 1370 1369 1367 1365 1364 1362 1361 1360 1359 1357 1356 1356 1355 1355 1355 1355 1355 1355 1355 1355 1355 1355 1355 1355 1355 1355 1355 1355 1355 1355 1356 1357 1358 1358 1358 1359 1359 1360 1361 1362 1362 1363 1364 1364 1365 1366 1368 1369 1370 1370 1371 1371 1372 1372 1373 1373 1374 1375
1390 1388 1387 1385 1383 1382 1380 1378 1377 1375 1374 1372 1370 1369 1367 1365 1364 1362 1361 1360 1358 1358 1357 1356 1356 1356 1356 1356 1356 1356 1356 1356 1356 1356 1356 1356 1356 1356 1356 1356 1356 1357 1358 1358 1359 1359 1360 1360 1361 1362 1363 1364 1364 1365 1365 1366 1367 1367 1368 1369 1370 1371 1371 1372 1372 1373 1374 1374 1375
1390 1389 1387 1386 1384 1383 1381 1380 1378 1376 1375 1373 1372 1370 1369 1367 1365 1364 1362 1361 1360 1360 1358 1357 1357 1357 1357 1357 1357 1357 1357 1357 1357 1357 1357 1357 1357 1357 1357 1356 1357 1357 1358 1359 1359 1360 1360 1361 1362 1363 1364 1365 1365 1365 1366 1366 1367 1368 1369 1369 1370 1370 1371 1372 1372 1373 1374 1375 1375
1391 1390 1388 1386 1385 1384 1382 1381 1379 1378 1376 1375 1373 1371 1370 1369 1367 1365 1364 1363 1362 1361 1360 1359 1358 1358 1357 1358 1358 1358 1358 1358 1358 1358 1358 1358 1358 1358 1358 1358 1358 1358 1358 1359 1360 1360 1360 1361 1362 1363 1364 1365 1365 1366 1366 1366 1367 1368 1369 1369 1370 1370 1370 1371 1372 1373 1374 1375 1375
1392 1390 1389 1387 1385 1384 1383 1381 1380 1379 1377 1375 1374 1372 1371 1370 1368 1367 1366 1365 1364 1363 1361 1360 1360 1359 1359 1358 1359 1359 1359 1359 1359 1359 1359 1359 1359 1359 1359 1359 1359 1359 1360 1360 1360 1360 1361 1362 1362 1363 1364 1365 1366 1366 1366 1367 1368 1368 1369 1369 1370 1370 1370 1371 1372 1373 1374 1375 1376
1393 1391 1390 1388 1386 1385 1383 1382 1380 1379 1378 1376 1375 1374 1372 1371 1370 1369 1368 1367 1365 1364 1363 1362 1361 1360 1360 1360 1360 1360 1360 1360 1360 1360 1360 1360 1360 1360 1360 1360 1360 1360 1360 1361 1361 1361 1361 1362 1363 1364 1365 1365 1365 1366 1366 1367 1368 1368 1369 1369 1369 1370 1370 1371 1372 1373 1374 1375 1375
1394 1392 1390 1389 1387 1386 1384 1382 1381 1380 1378 1377 1376 1375 1373 1372 1371 1370 1369 1368 1367 1366 1365 1364 1363 1362 1362 1361 1361 1361 1361 1361 1361 1361 1361 1361 1361 1361 1361 1361 1361 1361 1361 1361 1362 1362 1361 1362 1362 1363 1365 1365 1365 1366 1367 1367 1367 1368 1368 1368 1369 1369 1370 1370 1371 1372 1373 1374 1374
1395 1393 1391 1390 1388 1387 1385 1383 1381 1380 1379 1378 1376 1375 1375 1373 1372 1371 1370 1370 1369 1368 1367 1366 1365 1364 1364 1363 1362 1362 1362 1362 1361 1362 1362 1362 1362 1362 1361 1361 1361 1362 1362 1362 1362 1362 1362 1362 1363 1363 1364 1365 1365 1366 1367 1367 1367 1368 1368 1368 1369 1369 1370 1370 1370 1371 1372 1373 1374
1396 1394 1392 1391 1389 1387 1386 1384 1383 1381 1380 1379 1378 1376 1375 1375 1374 1373 1372 1371 1370 1370 1369 1368 1367 1366 1365 1365 1364 1364 1363 1363 1363 1362 1362 1362 1363 1363 1363 1362 1362 1362 1362 1362 1362 1362 1363 1363 1363 1364 1365 1365 1366 1366 1367 1367 1368 1368 1368 1368 1369 1369 1369 1370 1370 1371 1371 1372 1374
1397 1395 1393 1392 1390 1388 1387 1385 1384 1383 1381 1380 1379 1378 1377 1376 1375 1374 1373 1372 1371 1371 1370 1369 1369 1368 1367 1366 1365 1365 1365 1364 1364 1363 1363 1363 1363 1363 1363 1363 1363 1363 1363 1363 1363 1364 1364 1364 1364 1365 1365 1365 1366 1367 1367 1368 1368 1369 1369 1368 1368 1369 1369 1369 1370 1370 1371 1372 1373
1398 1396 1394 1393 1391 1389 1388 1386 1385 1384 1383 1382 1380 1379 1378 1377 1376 1375 1374 1373 1373 1372 1371 1370 1370 1369 1368 1367 1366 1366 1366 1365 1365 1365 1364 1364 1364 1364 1364 1364 1364 1364 1364 1364 1364 1364 1365 1365 1365 1365 1365 1366 1366 1367 1367 1368 1368 1368 1368 1368 1368 1369 1369 1369 1370 1370 1371 1372 1373
1399 1397 1395 1394 1392 1390 1389 1388 1387 1385 1384 1383 1382 1381 1380 1379 1378 1377 1375 1375 1374 1373 1372 1371 1371 1370 1369 1368 1368 1367 1367 1366 1366 1366 1366 1365 1365 1365 1365 1365 1364 1364 1365 1365 1365 1365 1365 1365 1365 1365 1366 1366 1366 1367 1367 1367 1367 1368 1368 1369 1369 1369 1369 1369 1369 1370 1370 1371 1372
1400 1398 1396 1395 1393 1392 1391 1389 1388 1387 1385 1384 1383 1382 1381 1380 1379 1378 1377 1376 1375 1374 1373 1373 1372 1371 1370 1370 1369 1369 1368 1368 1368 1367 1367 1367 1366 1366 1365 1365 1365 1365 1365 1365 1365 1365 1365 1365 1365 1365 1366 1366 1366 1366 1367 1367 1367 1368 1368 1369 1369 1369 1369 1369 1369 1370 1370 1371 1372
1400 1399 1397 1396 1395 1393 1392 1391 1390 1388 1387 1386 1385 1383 1382 1381 1380 1379 1378 1378 1377 1376 1375 1374 1373 1372 1372 1371 1370 1370 1370 1369 1369 1369 1368 1367 1367 1367 1366 1366 1365 1365 1365 1365 1365 1365 1365 1365 1365 1365 1365 1366 1366 1366 1366 1367 1367 1367 1368 1368 1368 1369 1369 1369 1369 1370 1370 1370 1371
1401 1400 1399 1397 1396 1395 1394 1392 1391 1390 1389 1387 1386 1385 1383 1382 1381 1380 1380 1379 1378 1377 1376 1375 1375 1374 1373 1372 1372 1371 1371 1370 1370 1369 1369 1368 1367 1367 1367 1366 1366 1365 1365 1365 1365 1365 1365 1365 1365 1365 1365 1365 1365 1366 1366 1366 1367 1367 1368 1368 1368 1368 1369 1369 1369 1370 1370 1370 1371
1402 1401 1400 1399 1397 1396 1395 1394 1393 1391 1390 1389 1387 1386 1385 1383 1382 1381 1380 1380 1379 1378 1377 1377 1376 1375 1374 1373 1373 1372 1372 1371 1370 1370 1369 1369 1368 1368 1367 1367 1366 1366 1366 1365 1365 1365 1365 1365 1365 1365 1365 1365 1365 1365 1366 1366 1367 1367 1367 1368 1368 1368 1369 1369 1369 1370 1370 1370 1371
1403 1402 1401 1400 1399 1398 1396 1395 1394 1393 1391 1390 1388 1387 1386 1385 1383 1382 1381 1380 1380 1379 1378 1378 1377 1376 1375 1375 1374 1373 1373 1372 1371 1370 1370 1369 1369 1368 1368 1367 1367 1366 1366 1365 1365 1365 1365 1365 1365 1365 1365 1365 1365 1365 1366 1366 1366 1367 1367 1367 1368 1368 1368 1369 1369 1370 1370 1370 1371
1404 1403 1402 1401 1400 1399 1397 1396 1395 1393 1392 1390 1389 1388 1387 1385 1384 1383 1382 1381 1380 1380 1379 1378 1378 1377 1376 1376 1375 1374 1373 1372 1372 1371 1370 1370 1369 1369 1368 1368 1367 1367 1366 1366 1366 1366 1366 1365 1365 1365 1365 1365 1366 1366 1366 1366 1366 1367 1367 1367 1367 1368 1368 1369 1369 1370 1370 1370 1371
1405 1404 1403 1402 1400 1399 1398 1397 1395 1394 1393 1391 1390 1389 1388 1386 1385 1384 1383 1382 1381 1380 1379 1379 1378 1377 1377 1376 1375 1375 1374 1373 1372 1371 1371 1370 1370 1369 1369 1368 1368 1367 1367 1367 1367 1367 1367 1366 1366 1366 1366 1366 1366 1366 1367 1367 1367 1367 1367 1367 1368 1368 1368 1369 1369 1370 1370 1370 1371
1406 1405 1403 1402 1401 1400 1399 1397 1396 1395 1394 1392 1391 1390 1389 1387 1386 1385 1384 1383 1382 1380 1380 1379 1378 1378 1377 1376 1376 1375 1375 1374 1373 1372 1372 1371 1370 1370 1370 1369 1369 1368 1368 1368 1368 1368 1367 1367 1367 1367 1367 1367 1367 1367 1367 1367 1367 1368 1368 1368 1368 1368 1369 1369 1369 1370 1370 1371 1371
1406 1405 1404 1403 1402 1400 1399 1398 1397 1396 1395 1393 1392 1391 1390 1388 1387 1386 1385 1384 1383 1381 1380 1380 1379 1378 1377 1376 1376 1375 1375 1374 1374 1373 1372 1372 1371 1371 1370 1370 1370 1369 1369 1369 1369 1368 1368 1368 1368 1368 1367 1367 1367 1367 1367 1367 1368 1368 1368 1368 1368 1369 1369 1369 1370 1370 1370 1371 1371
1407 1405 1405 1403 1402 1401 1400 1399 1397 1396 1395 1394 1393 1392 1391 1390 1388 1387 1386 1385 1384 1382 1381 1380 1379 1378 1377 1377 1376 1375 1375 1375 1374 1374 1373 1373 1372 1372 1371 1371 1370 1370 1370 1370 1369 1369 1369 1369 1368 1368 1368 1368 1368 1367 1368 1368 1368 1368 1368 1368 1369 1369 1369 1370 1370 1370 1370 1371 1371
1407 1406 1405 1404 1402 1401 1400 1399 1398 1396 1395 1395 1394 1393 1392 1390 1390 1388 1387 1385 1384 1383 1382 1381 1380 1379 1378 1377 1376 1376 1375 1375 1375 1374 1374 1373 1372 1372 1372 1371 1371 1371 1370 1370 1370 1370 1369 1369 1369 1369 1368 1368 1368 1368 1368 1368 1368 1368 1368 1369 1369 1369 1369 1370 1370 1370 1370 1370 1371
1407 1406 1405 1404 1403 1401 1400 1399 1398 1397 1396 1395 1395 1394 1392 1391 1390 1389 1387 1386 1385 1384 1383 1382 1381 1380 1379 1378 1377 1376 1376 1375 1375 1374 1374 1373 1373 1372 1372 1371 1371 1371 1371 1370 1370 1370 1370 1369 1369 1369 1369 1369 1368 1368 1368 1368 1367 1367 1368 1368 1369 1369 1369 1369 1369 1370 1370 1370 1370
1408 1406 1405 1404 1403 1402 1400 1400 1399 1398 1397 1396 1395 1394 1393 1391 1390 1389 1388 1387 1386 1385 1384 1383 1382 1381 1380 1379 1378 1377 1376 1375 1375 1374 1374 1373 1372 1372 1372 1371 1371 1371 1370 1370 1370 1370 1370 1370 1369 1369 1369 1369 1368 1368 1368 1368 1368 1367 1368 1368 1368 1368 1368 1369 1369 1369 1369 1370 1370
1408 1407 1405 1405 1403 1402 1401 1400 1399 1398 1397 1396 1395 1394 1393 1392 1391 1390 1389 1388 1387 1386 1385 1384 1383 1382 1381 1380 1379 1378 1377 1376 1375 1375 1374 1373 1373 1372 1372 1371 1371 1370 1370 1370 1370 1370 1369 1369 1369 1369 1369 1368 1368 1368 1368 1368 1367 1367 1367 1367 1367 1367 1368 1368 1368 1369 1369 1369 1370
1408 1407 1406 1405 1404 1402 1401 1400 1399 1398 1397 1396 1395 1394 1393 1392 1391 1390 1390 1389 1387 1386 1385 1384 1383 1382 1381 1380 1380 1379 1378 1377 1376 1375 1374 1374 1373 1372 1372 1371 1371 1370 1370 1370 1369 1369 1369 1369 1368 1368 1368 1368 1368 1368 1368 1367 1367 1367 1367 1367 1367 1367 1367 1368 1368 1368 1368 1369 1369
1408 1407 1406 1405 1404 1403 1401 1400 1400 1398 1397 1396 1395 1395 1394 1393 1392 1391 1390 1389 1388 1387 1386 1385 1384 1383 1382 1381 1380 1379 1378 1377 1376 1375 1375 1374 1373 1373 1372 1371 1370 1370 1370 1369 1369 1369 1368 1368 1368 1368 1368 1368 1368 1367 1367 1367 1367 1367 1367 1366 1367 1367 1367 1367 1368 1368 1368 1368 1368
1408 1407 1406 1405 1404 1403 1402 1401 1400 1399 1398 1397 1395 1395 1394 1393 1392 1391 1390 1389 1388 1387 1386 1385 1384 1383 1382 1381 1381 1380 1379 1378 1377 1376 1375 1374 1374 1373 1372 1371 1371 1370 1370 1369 1369 1368 1368 1367 1367 1367 1367 1367 1367 1367 1367 1367 1367 1366 1366 1366 1366 1366 1367 1367 1367 1368 1368 1368 1368
1408 1407 1406 1405 1404 1403 1402 1401 1400 1399 1398 1397 1396 1395 1394 1393 1392 1391 1390 1390 1389 1388 1387 1386 1385 1384 1383 1382 1381 1380 1379 1378 1377 1376 1375 1375 1374 1373 1372 1371 1371 1370 1370 1369 1368 1368 1367 1367 1367 1366 1366 1366 1366 1366 1366 1366 1366 1366 1366 1366 1366 1366 1366 1366 1367 1367 1368 1368 1368
1408 1407 1406 1405 1404 1403 1402 1401 1400 1399 1398 1397 1396 1395 1394 1393 1392 1392 1391 1390 1389 1388 1387 1386 1385 1384 1383 1382 1380 1380 1379 1378 1377 1376 1375 1375 1374 1373 1372 1371 1371 1370 1370 1369 1368 1368 1367 1367 1366 1366 1366 1365 1365 1365 1365 1365 1365 1365 1365 1365 1365 1365 1366 1366 1366 1366 1367 1367 1368
1408 1407 1406 1405 1404 1403 1402 1401 1400 1399 1398 1397 1396 1395 1395 1394 1393 1392 1391 1390 1389 1388 1387 1386 1385 1384 1383 1382 1381 1380 1379 1378 1377 1376 1375 1375 1374 1373 1372 1371 1370 1370 1369 1369 1368 1368 1367 1366 1366 1365 1365 1365 1365 1365 1365 1365 1365 1364 1365 1365 1365 1365 1365 1365 1365 1365 1365 1366 1367
1408 1407 1406 1405 1404 1403 1402 1401 1400 1399 1398 1397 1396 1396 1395 1394 1393 1392 1391 1390 1389 1388 1387 1386 1385 1384 1383 1382 1381 1380 1379 1378 1377 1376 1375 1375 1374 1373 1372 1371 1370 1370 1369 1369 1368 1368 1367 1366 1366 1365 1365 1365 1365 1365 1365 1365 1364 1364 1364 1364 1364 1364 1364 1364 1364 1365 1365 1365 1365
1408 1407 1406 1405 1404 1403 1402 1401 1400 1399 1398 1397 1397 1396 1395 1394 1393 1392 1391 1390 1389 1388 1387 1386 1385 1384 1383 1382 1381 1380 1379 1378 1377 1376 1375 1374 1374 1373 1372 1371 1370 1370 1369 1369 1368 1367 1367 1366 1366 1365 1365 1364 1364 1365 1365 1364 1364 1364 1363 1363 1363 1363 1363 1363 1363 1363 1364 1364 1364
1408 1407 1406 1405 1404 1403 1402 1401 1400 1400 1399 1398 1397 1396 1395 1394 1393 1392 1391 1390 1389 1388 1387 1386 1385 1385 1384 1382 1381 1380 1380 1378 1377 1376 1375 1374 1373 1373 1372 1371 1370 1370 1369 1368 1368 1367 1367 1366 1365 1365 1365 1364 1364 1364 1364 1364 1364 1363 1363 1363 1362 1362 1362 1362 1362 1362 1362 1362 1363
Wind_Speed
34 34 33 32 30 29 28 26 25 24 23 22 21 21 21 22 22 21 19 18 18 17 15 11 8 4 2 5 6 6 6 6 5 5 5 6 6 6 7 8 6 4 1 2 4 7 8 9 9 11 14 18 23 26 29 30 32 34 35 36 37 36 36 35 35 35 36 37 37
34 34 33 32 32 31 29 28 27 26 25 23 22 21 21 21 21 20 18 17 16 17 17 13 9 5 2 3 5 5 5 4 4 4 5 7 8 5 8 12 12 9 5 1 2 5 7 9 9 11 13 18 22 26 28 29 30 31 33 35 36 36 36 35 35 35 35 36 36
34 34 34 33 33 32 31 30 29 28 27 26 25 23 22 22 21 20 19 18 17 17 17 16 11 7 5 4 3 5 4 3 2 1 2 5 6 4 8 14 15 13 9 5 2 2 6 8 10 12 15 18 23 26 27 27 27 28 29 31 33 35 35 35 35 35 35 35 35
34 34 34 34 33 33 32 31 30 30 29 28 27 26 25 24 23 22 21 20 18 18 17 17 14 11 8 6 5 5 5 4 4 3 1 2 4 6 9 12 14 13 11 8 5 2 5 8 11 14 16 20 23 25 26 25 25 25 27 28 30 32 33 34 34 34 34 34 34
34 34 34 34 33 33 32 32 31 31 30 30 29 29 28 27 26 25 24 22 21 19 17 17 16 14 11 9 8 7 7 6 5 4 3 4 6 8 9 11 12 12 11 10 7 4 4 8 11 14 17 20 23 24 23 23 23 24 25 26 28 29 31 32 32 33 32 33 33
33 33 33 33 33 33 32 32 31 31 30 30 30 30 30 29 28 27 26 25 23 21 19 18 18 16 15 13 11 10 9 8 7 6 6 6 8 9 10 10 11 11 11 10 8 5 3 6 10 14 17 20 22 22 22 21 22 23 24 25 26 27 29 30 30 30 31 32 32
33 32 33 33 32 32 32 32 31 30 30 30 30 30 30 30 29 29 28 27 26 24 22 21 19 18 16 15 13 12 11 9 8 8 7 8 9 10 10 10 11 11 10 8 7 5 3 4 9 13 16 18 19 20 20 21 21 23 24 25 26 27 28 29 29 29 30 32 33
31 31 32 32 32 32 32 31 31 30 30 29 29 30 30 30 30 30 30 29 28 26 24 23 21 19 17 15 14 13 12 11 10 9 9 9 9 9 9 9 10 9 8 7 5 3 1 3 8 12 15 16 17 18 19 20 21 22 23 25 26 27 28 29 29 29 30 33 35
30 30 30 31 31 31 31 31 31 30 30 29 29 29 29 29 30 30 30 30 29 28 26 24 23 20 18 15 13 12 12 11 11 10 10 9 9 10 10 10 9 8 7 7 6 5 3 4 6 8 10 12 15 18 20 20 21 22 23 24 26 27 28 29 29 29 30 32 35
30 30 30 30 30 30 30 30 30 30 30 30 29 29 29 29 30 30 29 29 29 28 28 26 25 23 20 18 15 12 10 10 10 10 10 10 10 11 11 11 10 9 9 9 9 8 7 6 6 6 7 11 16 19 21 21 21 22 23 24 26 27 27 28 28 28 29 31 33
30 30 30 30 30 30 30 30 30 30 30 30 30 29 29 29 29 29 29 28 28 29 29 28 27 25 24 22 19 16 12 10 8 8 8 8 9 10 11 11 10 9 8 9 10 10 10 9 8 8 10 14 17 19 20 20 21 22 23 24 25 26 26 26 25 25 27 29 32
30 29 29 29 29 29 29 29 30 30 30 30 30 30 30 29 29 29 28 28 28 28 28 28 28 27 26 25 24 21 18 14 10 7 6 6 7 8 8 8 7 6 6 7 9 10 10 10 9 10 12 15 17 18 18 19 20 21 23 24 25 25 25 24 24 24 25 28 31
29 29 29 29 28 28 28 29 29 30 30 30 30 30 30 29 29 28 28 28 28 28 27 27 27 27 27 27 26 25 23 20 17 12 8 6 6 7 8 7 7 6 6 6 7 9 11 11 11 12 13 14 15 16 17 18 20 21 22 23 24 25 25 25 24 24 25 27 30
28 28 29 29 28 28 28 28 29 29 30 30 30 30 30 29 29 28 28 28 27 27 26 26 26 26 26 26 25 25 25 24 22 18 15 11 8 7 7 8 8 9 9 10 10 11 12 13 14 15 15 15 15 16 17 18 20 21 21 21 22 23 24 25 25 25 26 26 27
28 28 28 28 28 28 28 28 28 28 29 29 29 29 29 29 29 29 28 28 27 26 26 25 25 24 24 24 24 24 24 24 23 22 20 17 13 10 8 7 8 8 9 11 12 13 13 14 15 16 17 17 16 16 16 17 19 20 21 21 21 22 23 24 25 26 26 26 25
27 28 28 28 29 29 29 28 28 28 27 27 27 27 28 28 28 28 28 28 27 26 25 25 24 23 23 22 22 22 23 23 23 23 22 20 18 16 13 10 8 7 8 9 10 11 12 13 14 15 16 17 17 16 16 16 18 19 20 20 21 21 22 23 24 25 26 25 24
27 28 28 28 28 29 29 28 28 27 27 26 26 26 26 26 27 27 27 27 27 26 26 25 24 23 22 22 21 22 22 22 23 22 22 21 20 19 17 15 13 10 8 8 8 9 10 12 13 14 15 15 16 16 15 15 16 17 18 19 19 20 21 22 23 24 24 24 24
27 27 27 28 28 28 28 28 28 27 27 26 25 25 24 24 24 25 25 26 26 26 26 25 24 23 22 22 21 21 21 22 22 21 21 20 20 20 19 18 16 14 13 11 9 9 9 10 11 12 13 13 14 14 14 15 15 16 16 17 18 19 20 21 22 23 23 23 24
27 27 27 28 28 28 27 27 27 27 26 26 25 24 24 23 23 23 23 23 24 25 25 25 24 23 22 22 21 21 20 20 20 20 20 20 20 19 19 18 18 17 16 14 13 12 10 10 10 10 11 11 12 12 12 13 13 14 15 15 16 17 18 19 20 21 21 22 22
27 28 28 27 27 27 27 27 26 26 26 25 25 24 23 23 22 21 21 21 22 22 23 23 23 23 22 22 21 20 20 19 19 19 19 19 19 19 19 19 18 18 17 16 15 14 13 12 11 10 10 10 10 10 10 10 11 12 13 13 14 15 16 17 18 19 19 20 20
27 28 27 27 27 26 26 26 25 25 25 24 24 24 23 23 22 21 21 20 20 20 20 20 21 22 22 22 21 21 20 19 19 18 18 18 18 18 18 18 18 18 17 17 16 15 14 13 12 12 11 10 9 9 9 9 9 10 11 12 12 13 14 15 16 17 18 18 18
27 27 27 27 26 26 25 25 24 24 24 23 23 23 23 22 22 21 21 20 19 19 18 18 19 20 20 21 21 21 20 20 19 19 18 17 17 17 17 17 17 17 17 17 17 16 16 15 14 13 12 11 10 9 9 8 8 9 9 10 10 11 12 13 14 15 16 16 16
26 26 26 26 26 25 25 24 24 24 23 23 23 23 23 22 22 21 20 20 19 18 18 17 17 17 18 19 19 19 19 19 19 19 18 18 17 17 17 16 16 16 16 17 17 17 16 16 15 14 13 12 11 10 9 8 8 8 8 9 9 9 9 10 11 12 13 13 13
25 25 25 25 25 25 25 24 24 24 24 24 24 23 23 22 22 21 20 20 19 18 18 17 16 16 16 17 17 18 18 19 19 19 19 18 18 17 17 17 17 17 17 17 17 16 15 15 15 14 14 13 12 10 9 9 8 8 8 8 8 8 8 8 9 10 10 11 11
24 24 24 24 25 25 25 25 25 25 25 24 24 23 23 23 22 21 21 20 19 19 18 17 16 16 15 16 16 16 17 17 18 18 18 18 18 18 17 17 16 16 16 16 16 15 14 14 14 13 13 13 12 11 10 9 8 7 7 7 7 8 8 8 8 9 9 10 11
22 23 23 24 24 24 24 25 25 25 24 24 24 24 24 23 23 22 21 21 20 19 18 18 17 16 16 16 15 15 16 16 17 17 17 17 17 17 17 17 16 16 16 15 15 15 14 13 13 12 12 12 12 11 11 10 9 8 7 7 7 7 8 8 9 9 10 11 12
22 22 23 23 23 24 24 24 24 24 24 24 24 24 24 23 23 22 22 21 20 20 19 18 18 17 17 16 16 15 15 15 15 15 15 15 16 16 16 16 16 16 15 15 14 14 13 13 12 12 11 11 11 11 11 11 10 9 8 7 7 7 9 10 11 11 12 12 13
21 22 22 23 23 24 24 24 24 24 24 24 24 24 23 23 23 22 22 21 21 20 20 19 19 18 18 17 16 16 15 15 14 14 14 14 14 14 14 14 15 15 14 14 14 13 13 13 12 11 11 11 11 11 12 11 11 10 9 7 7 7 8 10 11 13 14 15 15
21 21 22 22 23 23 24 24 24 24 24 24 23 23 22 22 22 22 22 22 21 21 21 21 20 19 18 18 17 16 16 15 14 14 13 13 13 13 12 13 13 13 13 13 13 13 13 13 12 12 11 11 11 11 12 12 12 11 10 8 7 7 6 7 9 11 13 15 17
20 21 21 22 22 23 23 24 24 24 24 23 23 22 22 22 22 22 23 23 23 22 22 21 20 19 19 18 17 17 16 15 15 14 14 13 13 13 12 12 11 11 11 12 12 12 13 13 13 13 12 12 11 11 11 12 12 12 11 10 9 7 7 6 6 7 9 12 15
20 20 21 21 22 23 23 23 24 24 23 23 23 22 22 22 23 23 23 23 23 22 21 20 19 19 18 17 17 17 16 16 15 15 14 14 14 13 13 13 12 11 11 11 11 11 11 12 12 13 13 12 12 11 11 12 13 13 13 12 11 10 8 8 7 6 6 8 12
19 20 20 21 21 22 22 23 23 23 23 23 23 22 22 23 23 23 23 23 22 22 21 21 20 19 18 17 17 16 16 16 15 15 15 14 14 14 14 13 13 12 12 11 11 10 10 10 11 12 12 12 12 11 11 11 12 13 13 14 13 12 11 10 9 8 6 6 8
19 19 20 20 21 21 22 22 22 23 23 23 23 22 22 22 22 22 22 23 23 23 22 22 21 20 20 19 18 17 16 16 15 15 14 14 14 14 14 14 14 14 13 13 12 12 11 10 10 10 11 11 11 11 11 10 10 11 12 13 14 14 13 13 12 10 9 7 7
19 19 20 20 21 21 21 22 22 22 22 22 22 22 22 22 22 22 23 23 23 23 23 22 22 21 21 20 19 18 17 16 15 15 14 14 13 13 14 14 14 14 14 14 14 13 12 11 11 10 10 10 10 11 11 10 10 10 10 12 12 13 14 14 14 13 12 10 9
18 19 19 20 20 20 21 21 21 22 22 22 22 22 22 22 22 23 23 23 23 22 22 22 22 21 21 20 19 18 17 17 16 15 14 14 13 13 13 13 14 14 14 14 14 14 14 13 12 11 10 10 10 10 10 10 10 10 9 10 11 12 13 14 14 15 14 13 12
18 19 19 19 20 20 20 21 21 21 21 21 22 22 22 22 22 22 22 22 22 22 22 22 22 21 21 21 20 19 18 17 17 16 15 14 14 13 13 13 13 13 14 14 14 15 15 15 14 12 11 10 10 10 10 10 10 10 9 9 9 10 11 12 14 15 15 15 15
18 19 19 19 20 20 20 21 21 21 21 21 21 22 22 22 22 22 22 22 22 22 22 22 21 22 22 21 21 20 19 18 17 16 16 15 14 14 14 13 13 13 13 14 14 15 15 16 15 14 12 11 10 10 10 10 10 10 10 10 9 9 10 11 12 14 15 16 16
18 18 19 19 19 20 20 20 21 21 21 21 21 21 21 21 22 22 22 22 22 22 22 21 22 22 22 21 21 20 19 18 18 17 16 15 15 14 14 14 14 14 14 14 14 15 16 16 16 15 14 12 11 11 10 10 10 10 11 11 11 10 10 10 11 13 14 15 16
18 18 18 19 19 19 20 20 20 21 21 20 20 20 21 21 21 22 22 22 22 22 22 22 21 21 21 21 20 20 19 18 18 17 16 15 15 14 14 14 14 14 14 14 14 15 16 16 17 16 15 14 13 12 11 11 10 11 11 12 12 12 11 11 11 12 13 14 15
17 18 18 18 19 19 19 20 20 20 20 20 20 20 21 21 21 21 21 22 22 22 22 22 21 21 21 20 20 20 19 18 17 17 16 15 14 14 14 14 14 14 14 15 15 15 15 16 17 17 16 15 14 13 12 11 11 11 12 12 13 13 13 13 12 12 12 13 14
17 17 18 18 18 19 19 19 19 20 20 19 20 20 20 21 21 21 21 21 21 21 21 21 21 21 21 20 20 20 19 18 17 16 15 14 14 13 13 13 13 13 14 15 15 15 15 16 16 16 16 16 15 15 14 13 12 12 13 13 13 14 15 15 14 13 13 12 13
Wind_Direction
19 18 18 18 19 21 23 24 24 24 26 28 31 31 30 27 23 17 11 9 10 10 5 351 337 334 79 106 105 111 125 140 157 182 206 216 230 265 315 343 356 4 21 167 184 200 213 218 214 209 207 207 205 201 197 196 196 198 199 201 200 199 197 196 196 197 198 197 197
20 20 20 19 19 20 21 22 22 22 23 25 27 28 30 30 28 22 15 10 10 13 13 7 355 349 20 80 104 117 127 139 152 171 192 203 217 266 344 11 22 26 24 22 195 209 219 225 225 219 215 213 208 201 196 194 194 196 197 198 198 197 196 196 198 200 201 200 200
21 21 21 21 21 21 22 22 22 22 22 23 25 27 28 29 29 26 21 15 12 14 16 16 11 4 3 25 88 110 108 85 77 115 201 214 222 279 354 15 23 26 23 17 353 240 229 230 229 225 219 214 207 201 196 194 194 195 195 196 197 197 197 198 200 201 202 202 201
21 22 22 22 22 23 24 24 23 23 23 24 24 26 28 30 30 29 26 22 18 15 15 18 21 20 18 24 51 75 77 61 46 36 349 274 282 320 355 15 24 27 26 20 3 306 243 230 226 222 217 211 205 200 197 196 196 197 198 198 198 198 198 199 201 202 203 203 202
22 23 23 23 23 24 24 24 24 24 24 24 25 26 28 30 32 31 30 27 24 19 15 16 21 27 31 33 37 46 53 56 51 41 16 344 332 338 355 18 30 34 31 27 14 339 263 234 225 219 214 208 203 200 199 200 201 201 201 201 201 201 201 201 201 202 203 203 203
23 23 24 24 24 24 25 25 25 24 24 24 25 26 27 29 31 32 31 30 28 25 20 16 17 20 26 31 33 35 38 40 39 33 19 0 348 348 1 26 41 44 39 34 25 3 296 247 232 223 216 209 204 202 202 202 203 205 205 205 205 205 204 203 203 204 205 205 205
23 23 24 24 25 25 25 25 25 25 24 25 25 26 26 28 30 31 32 32 31 30 26 22 17 15 16 21 25 27 27 25 22 17 8 359 353 354 5 27 46 51 47 41 35 22 333 264 239 227 219 214 209 207 206 205 205 206 208 208 208 207 207 206 207 209 211 211 210
22 23 24 24 25 25 26 26 26 25 24 25 25 25 25 26 29 31 33 33 33 32 31 28 23 18 14 13 15 17 18 18 15 11 6 1 359 1 11 27 39 43 41 37 33 26 334 248 236 229 226 225 223 220 216 212 210 209 210 210 210 210 210 210 212 215 217 217 214
21 22 23 23 24 25 26 27 26 26 25 25 25 25 25 25 27 29 32 33 33 34 35 35 31 27 22 17 12 9 9 10 11 13 15 14 14 16 21 29 34 31 21 8 356 337 294 243 233 234 238 240 236 232 227 221 216 213 213 213 213 213 213 214 215 218 220 219 214
21 21 21 22 23 24 25 26 27 26 26 25 25 25 25 25 26 28 30 32 33 35 37 38 38 35 32 27 20 12 5 2 4 8 12 17 20 22 25 29 32 27 15 0 344 325 299 268 249 249 252 244 238 234 231 227 222 219 217 216 215 215 216 216 217 219 220 218 213
21 21 21 22 22 22 23 25 26 26 26 26 25 24 24 24 25 26 27 30 32 35 36 38 39 40 39 36 31 23 14 3 355 352 352 355 1 9 14 19 24 23 15 2 349 333 311 283 267 256 245 236 234 232 230 228 226 224 222 220 219 218 218 217 218 218 218 216 214
21 22 22 22 21 21 22 23 24 25 26 26 25 24 24 24 24 24 25 27 30 32 35 37 38 40 41 40 38 33 26 16 4 348 331 324 328 336 346 354 0 4 2 355 347 336 320 296 278 260 245 234 229 227 227 228 229 229 227 225 224 223 221 220 220 219 218 217 216
22 22 22 22 22 21 21 22 22 23 24 24 24 24 23 23 23 23 23 25 27 29 32 35 37 39 40 40 40 38 35 29 21 10 354 333 315 309 308 309 309 311 315 317 319 316 308 298 284 263 244 232 228 227 228 230 231 231 230 228 228 227 227 226 225 223 221 220 218
22 23 23 23 23 22 22 22 22 22 22 23 23 23 22 22 21 21 22 23 24 25 28 32 35 38 39 39 39 39 38 36 32 26 18 5 345 321 301 291 286 285 286 286 287 286 285 285 277 262 247 236 233 234 236 236 236 236 236 235 234 234 234 233 232 229 227 224 221
24 24 23 23 23 23 23 23 22 22 21 21 21 21 20 20 20 20 20 21 21 22 24 27 31 35 38 39 39 39 38 38 37 35 32 24 14 359 337 311 292 282 277 275 274 273 273 271 266 258 249 243 240 241 244 246 247 249 250 249 247 245 242 240 237 234 232 229 224
25 25 24 24 24 24 24 24 24 23 22 21 20 19 19 19 18 18 18 19 19 19 20 21 25 29 34 38 39 39 38 37 37 38 38 35 29 22 11 356 335 311 290 277 270 266 264 261 258 253 249 246 243 244 247 252 258 264 266 264 261 256 252 247 243 239 236 234 230
27 27 26 25 24 24 24 24 24 24 23 22 21 20 19 18 17 16 16 16 16 16 16 17 19 22 27 32 35 36 36 35 35 36 38 38 37 34 29 22 13 359 340 317 294 279 269 264 260 257 254 251 249 249 251 257 264 270 274 273 268 263 259 254 250 246 243 241 240
29 28 28 27 26 25 24 24 24 23 23 23 22 21 20 19 17 16 15 14 13 13 14 14 15 16 20 24 27 30 31 32 32 33 34 36 37 38 38 36 32 26 17 5 347 325 305 290 281 275 271 267 263 262 263 266 269 273 275 274 269 265 260 257 254 252 250 249 249
30 30 29 29 28 27 25 24 24 23 22 22 22 22 21 20 19 17 15 13 12 11 11 11 11 13 15 17 20 23 25 27 27 28 29 31 33 35 38 39 40 38 35 29 20 8 354 337 322 309 300 292 285 281 280 280 279 278 274 271 266 261 258 255 254 253 253 253 253
30 30 30 30 29 28 27 26 25 23 23 22 22 22 21 21 20 19 17 16 13 11 10 9 9 10 12 13 15 17 19 21 22 23 25 27 28 30 31 34 36 38 39 38 34 27 19 10 359 347 335 324 314 307 302 298 293 285 277 270 263 257 254 252 252 252 252 252 252
29 30 30 30 30 29 28 27 26 25 24 23 22 22 21 21 20 20 20 18 16 14 11 9 7 8 9 10 12 13 14 15 16 19 21 23 24 25 26 26 27 29 32 34 34 32 28 22 15 7 358 348 340 332 325 318 308 296 284 273 265 259 254 252 250 249 249 249 249
27 28 29 29 29 29 29 28 28 27 26 25 24 23 22 21 21 20 20 19 18 17 16 13 10 8 8 9 11 12 12 12 13 15 17 18 19 20 21 21 22 22 24 25 27 27 27 25 20 15 8 1 354 347 340 332 322 310 298 285 274 266 259 254 250 248 247 246 245
25 26 28 28 29 29 29 29 28 28 28 27 26 25 24 23 21 20 19 19 19 19 19 18 15 13 11 11 11 11 12 12 12 12 13 14 15 15 16 16 17 19 20 20 20 20 21 21 19 15 11 7 1 355 347 339 330 321 310 299 288 277 266 257 250 245 242 240 237
22 24 25 26 27 27 27 28 28 28 28 28 27 26 25 24 23 21 20 19 19 19 20 20 19 18 16 14 12 11 11 11 11 11 11 11 11 11 11 12 13 14 16 17 17 17 17 16 15 12 9 6 4 359 353 344 333 322 314 306 297 286 273 260 248 239 233 228 223
20 22 23 24 25 25 26 26 27 27 27 27 27 26 26 25 24 23 21 20 20 19 19 19 18 18 17 16 14 12 11 10 10 10 10 10 10 9 8 8 9 10 11 12 11 12 12 12 10 8 5 2 0 359 357 350 339 325 313 303 295 286 274 260 245 233 225 219 214
18 19 21 22 23 24 24 25 26 27 27 27 26 26 26 26 25 24 23 22 21 20 18 17 17 16 16 15 14 13 12 11 10 10 10 10 9 8 7 7 7 7 7 6 4 3 3 3 3 1 358 355 353 353 353 352 346 336 321 303 289 278 267 257 245 234 226 221 215
16 18 19 20 21 22 23 24 24 25 26 26 26 26 26 25 25 25 24 24 23 21 20 18 17 16 14 13 12 12 12 11 10 9 9 8 7 7 7 7 7 6 5 3 359 356 354 353 353 352 349 345 343 342 343 345 345 343 334 316 297 278 264 255 249 242 236 231 225
15 16 17 18 19 21 22 22 23 23 24 25 25 25 25 25 25 25 25 25 24 23 22 21 19 16 13 11 10 9 9 9 8 8 7 5 5 4 5 7 7 6 4 1 358 355 351 348 344 342 338 335 332 330 330 332 335 338 338 329 315 294 276 263 256 251 247 243 238
13 14 15 16 18 19 20 20 21 22 22 23 24 24 25 25 25 25 25 25 25 25 24 22 20 17 14 11 9 7 6 5 5 4 3 1 0 0 1 3 3 2 1 359 358 356 353 349 344 338 332 327 322 319 319 320 321 324 327 327 325 315 299 283 271 262 256 251 246
11 12 13 14 16 17 18 19 19 19 20 20 21 22 23 24 25 25 25 25 25 25 25 23 21 18 16 13 10 6 4 3 1 360 359 358 357 357 357 357 356 354 353 353 353 353 352 351 348 343 336 329 321 314 310 309 310 311 312 314 316 315 312 307 297 282 269 258 250
9 10 11 12 13 15 16 16 17 17 17 17 18 20 21 23 24 24 25 25 25 25 24 24 22 21 19 16 12 9 5 2 360 357 356 355 354 354 354 352 350 347 345 344 344 344 345 347 347 347 345 340 333 323 313 306 303 303 303 303 304 304 305 306 308 303 287 266 253
7 8 10 11 12 13 13 14 14 14 14 14 15 17 19 21 22 23 23 23 23 23 23 22 22 22 21 19 16 12 8 4 1 358 355 353 351 350 349 348 346 345 342 340 337 335 336 337 340 342 344 346 344 338 328 315 306 301 299 297 296 296 296 296 299 300 296 277 257
6 7 8 9 10 11 11 11 12 12 12 12 13 14 16 19 20 21 21 21 20 20 20 20 20 20 20 19 17 14 11 7 3 360 356 352 349 346 344 343 343 343 342 340 338 336 333 330 330 331 334 338 341 342 340 331 319 309 302 297 294 291 289 287 288 290 290 282 266
4 6 7 8 8 9 9 9 10 10 9 10 10 12 14 15 17 18 18 18 18 18 18 18 17 17 17 17 16 14 11 8 4 1 357 353 349 345 342 340 339 339 339 339 339 337 335 330 326 323 322 324 328 333 336 336 331 320 310 302 297 291 286 282 280 280 280 277 269
3 4 5 6 6 7 7 7 8 8 7 7 8 9 11 12 14 15 16 16 15 16 16 16 15 15 14 14 13 12 11 8 5 2 358 355 350 345 342 339 336 335 335 335 335 335 333 331 328 324 320 317 317 320 326 330 330 326 318 308 302 295 288 282 276 273 271 269 264
2 3 4 4 5 5 5 6 6 6 6 6 6 7 8 9 11 12 12 13 13 13 13 14 13 13 12 12 11 10 9 7 4 1 358 355 351 346 342 338 335 332 331 331 332 332 331 329 329 329 327 323 318 316 317 320 323 322 317 311 303 298 294 287 279 272 267 261 256
1 1 2 3 3 3 3 4 4 4 5 5 5 5 6 7 7 8 8 9 10 11 11 11 11 11 11 10 9 8 6 5 2 359 356 353 350 346 342 338 335 332 330 329 329 330 329 328 329 331 332 331 327 321 318 316 315 314 312 309 303 297 294 291 285 278 269 260 251
359 0 1 1 1 2 2 2 2 3 3 4 4 4 4 4 5 5 5 5 6 8 8 9 9 9 9 9 8 7 5 3 1 358 354 351 348 344 340 337 334 332 331 329 329 328 327 326 327 330 333 334 332 328 323 318 315 312 309 306 301 296 291 288 286 283 277 267 256
358 359 359 359 360 0 0 0 1 1 1 2 2 2 2 3 2 2 2 2 3 4 5 5 6 7 7 7 7 7 5 3 1 358 354 349 346 342 338 334 331 330 329 328 327 326 325 324 325 327 331 332 331 329 325 320 317 313 310 305 300 294 289 284 282 282 281 277 269
357 358 358 358 359 359 359 359 359 359 360 360 0 1 1 1 1 0 360 360 360 1 1 2 3 3 4 4 5 6 6 5 3 359 355 350 345 340 336 331 328 326 325 324 324 323 322 321 323 324 327 328 328 326 323 319 315 313 311 307 300 293 287 282 279 277 278 280 279
356 356 357 357 357 357 358 358 358 358 358 358 359 360 360 359 359 358 358 357 358 358 358 359 360 0 1 1 2 3 5 6 5 3 359 353 346 340 335 330 326 323 321 320 319 318 318 319 320 321 322 323 323 322 319 316 312 310 309 307 303 297 289 282 278 275 274 275 278